Zurück zum Katalog

STARLINK-1371

AktivKommunikationVLEO
NORAD 45542·PAYLOAD·🇺🇸 United States

Gestartet Apr 22, 2020 von Cape Canaveral Space Force Station

Loading…

Nächste Überflüge (nächste 24 Stunden)

TLE

AktuellSource: CelesTrak SupGP

Epoche: Sep 15, 2026, 00:12 UTC

1 45542C 20025M   26258.00881944  .00091719  00000+0  47233-3 0  2582
2 45542  53.0369 241.1352 0005554  48.6326  66.0654 15.80401069    16

Verfolge STARLINK-1371 in Echtzeit mit AllMySat

Download on the App Store